Location: Plainartige
(45.6866°N, 1.7993°E)
Time: 01:00:02
(UTC+00:00)

BEESAT - Pass Details

Date: 29 June 2022
Orbit: 700 x 706 km, 98.6° (Epoch: 16 August)

Event Time Altitude Azimuth Distance (km) Brightness Sun altitude
Rises 20:26:07 0° 13° (NNE) 3,105 ? -6.2°
Reaches altitude 10° 20:28:23 10° 13° (NNE) 2,183 ? -6.5°
Maximum altitude 20:33:11 87° 285° (WNW) 713 ? -7.1°
Drops below altitude 10° 20:37:57 10° 197° (SSW) 2,170 ? -7.7°
Sets 20:40:11 0° 197° (SSW) 3,085 ? -8.0°
